Regional Weather Roundup
Issued by NWS

Current Version | Previous Version | Text Only | Print | Product List | Glossary On
Versions: 1 2 3 4 5 6 7 8 9 10 11 12 13 14 15 16 17 18 19 20 21 22 23 24 25 26 27 28 29 30 31 32 33 34 35 36 37 38 39 40 41 42 43 44 45 46 47 48 49 50
000
ASUS43 KDTX 010710
RWRMI
MICHIGAN HOURLY REGIONAL WEATHER ROUNDUP
NATIONAL WEATHER SERVICE DETROIT/PONTIAC MI
200 AM EST MON MAR 01 2021

NOTE: "FAIR" INDICATES FEW OR NO CLOUDS BELOW 12,000 FEET WITH NO
SIGNIFICANT WEATHER AND/OR OBSTRUCTION TO VISIBILITY.

MIZ047>049-052>055-059>063-066>070-074>076-081>083-010800-
SOUTHEAST LOWER MICHIGAN

CITY           SKY/WX    TMP DP  RH WIND       PRES   REMARKS
ADRIAN         CLOUDY    37  29  72 NW12G20   29.85R WCI  29
ALMA           CLOUDY    36  29  74 W13G18    29.84R WCI  28
ANN ARBOR      CLOUDY    38  29  70 NW17G26   29.81R WCI  28
BAD AXE        CLOUDY    33  28  81 NW15G21   29.75R WCI  23
CARO           CLOUDY    34  29  82 NW13      29.79R WCI  25
DETROIT CITY   CLOUDY    42  30  62 NW13G26   29.78R
DETROIT        CLOUDY    39  30  70 NW16G22   29.80R WCI  30
FLINT          CLOUDY    38  29  70 W20G28    29.80R WCI  28
GROSSE ILE     CLOUDY    40  32  74 NW12G23   29.79R WCI  33
HILLSDALE      CLOUDY    34  29  81 NW17G26   29.83R WCI  24
HOWELL         CLOUDY    36  30  79 NW16G26   29.82R WCI  26

CITY           SKY/WX    TMP DP  RH WIND       PRES   REMARKS
JACKSON        CLOUDY    36  26  67 W13G25    29.84R WCI  27
LAMBERTVILLE   CLOUDY    40  32  74 W9G17     29.83R WCI  33
LANSING        CLOUDY    35  27  72 W13       29.85R WCI  26
LAPEER         CLOUDY    37  28  67 NW13G21   29.78R WCI  29
MASON          CLOUDY    35  28  74 NW12G20   29.85R WCI  27
MONROE         CLOUDY    39  33  78 NW13      29.81R WCI  32
MT. CLEMENS    CLOUDY    40  34  79 W21G28    29.75R WCI  30
PONTIAC          N/A    N/A N/A N/A MISG      29.77R
PORT HOPE        N/A     35  27  72 NW17G29   29.73R WCI  25
PORT HURON     CLOUDY    39  32  75 NW10G16   29.76R WCI  32
TRI CITIES     CLOUDY    36  25  64 NW20G31   29.81R WCI  25
MIDLAND        CLOUDY    35  26  70 NW15G26   29.81R WCI  25
TROY           CLOUDY    39  31  73 NW15G24   29.80R WCI  31
SAGINAW HB     CLOUDY    36  27  69 NW16G24   29.81R WCI  26
$$
MIZ043>046-050>051-056>058-064>065-071>073-077>080-010800-
SOUTHWEST LOWER MICHIGAN

CITY           SKY/WX    TMP DP  RH WIND       PRES   REMARKS
BATTLE CREEK   CLOUDY    36  28  73 NW12      29.88R WCI  28
BENTON HARBOR  MOCLDY    36  27  69 NW9G21    29.95R WCI  29
BIG RAPIDS     CLOUDY    32  23  69 NW8G17    29.83R WCI  25
COLDWATER      CLOUDY    35  29  77 NW9G20    29.88R WCI  28
FREMONT        CLOUDY    33  27  78 NW17G24   29.88R WCI  21
HOLLAND        CLOUDY    35  24  64 NW13G24   29.92R WCI  26
GRAND RAPIDS   CLOUDY    35  26  69 NW14G25   29.88R WCI  26
IONIA          CLOUDY    35  22  60 NW15G26   29.85R WCI  25
KALAMAZOO      CLOUDY    36  26  67 NW14      29.89R WCI  27
LUDINGTON      CLOUDY    32  19  59 NW12G21   29.89R WCI  23
MARSHALL       CLOUDY    35  28  74 NW7G23    29.87R WCI  29
MOUNT PLEASANT CLOUDY    35  23  62 NW10G22   29.82R WCI  27
MUSKEGON       CLOUDY    35  25  66 NW12G26   29.91R WCI  27
SOUTH HAVEN    CLOUDY    35  28  78 NW12G20   29.94R WCI  26
$$
MIZ016>042-010800-
NORTHERN LOWER MICHIGAN

CITY           SKY/WX    TMP DP  RH WIND       PRES   REMARKS
ALPENA         MOCLDY    30  18  60 NW14G32   29.74R WCI  19
BEAVER ISLAND  CLOUDY    28  20  72 NW8G21    29.82R WCI  20
BELLAIRE       CLOUDY    31  19  58 NW13G24   29.83R WCI  22
CADILLAC       CLOUDY    29  20  68 NW14G22   29.81R WCI  19
CHARLEVOIX     CLOUDY    31  22  68 W23G29    29.82R WCI  18
FRANKFORT      CLOUDY    31  17  56 NW9G18    29.87R WCI  23
GAYLORD        CLOUDY    30  17  58 W9G18     29.75R WCI  22
GRAYLING       CLOUDY    28  21  74 NW12G21   29.77R WCI  18
HARBOR SPRINGS LGT SNOW  29  23  78 W8G16     29.79R WCI  21
HOUGHTON LAKE  CLOUDY    30  20  66 NW13G25   29.79R WCI  20
MANISTEE       MIX PCPN  32  21  64 NW15G23   29.88R WCI  22
OSCODA         CLOUDY    32  23  69 NW21G36   29.74R WCI  20
PELLSTON       LGT SNOW  28  22  78 NW16G28   29.79R WCI  16
ROGERS CITY    CLOUDY    29  20  69 W12G23    29.76R WCI  19
TRAVERSE CITY  CLOUDY    31  17  56 W17G23    29.85R WCI  19
$$
MIZ007>008-015-010800-
EASTERN UPPER MICHIGAN

CITY           SKY/WX    TMP DP  RH WIND       PRES   REMARKS
KINROSS        LGT SNOW  24  17  74 NW23G33   29.74R WCI   9
MACKINAC ISLAN CLOUDY    28  19  66 NW15G29   29.77R WCI  17
NEWBERRY       LGT SNOW  24  18  77 NW10G20   29.79R WCI  13
S. S. MARIE    LGT SNOW  23  17  78 NW20G30   29.74R WCI   8
MUNISING         N/A     22  13  68 N18G35    29.86R WCI   7
$$
MIZ004>006-011>014-085-010800-
CENTRAL UPPER MICHIGAN

CITY           SKY/WX    TMP DP  RH WIND       PRES   REMARKS
MANISTIQUE     FLURRIES  26  19  76 NW13G22   29.83R WCI  14
ESCANABA       FLURRIES  23  12  62 W15G24    29.90R WCI  10
MENOMINEE      CLOUDY    27  16  63 N9G20     29.92R WCI  18
SAWYER-GWINN   CLOUDY    19  10  69 NW23      29.85R WCI   1
$$
MIZ001>003-009>011-084-010800-
WESTERN UPPER MICHIGAN

CITY           SKY/WX    TMP DP  RH WIND       PRES   REMARKS
IRON MOUNTAIN  CLOUDY    19   7  59 NW20G33   29.89R WCI   3
HOUGHTON       CLOUDY    17   6  62 NW22G29   29.89R WCI   0
COPPER HARBOR    N/A     17   6  62 N29G40    29.91R WCI  -2
IRONWOOD       CLOUDY    14   6  70 NW16      29.99R WCI  -2
$$

ABBREVIATIONS USED IN REMARKS
   TC - TEMPERATURE IN CELSIUS
  WCI - WIND CHILL INDEX
   HX - HEAT INDEX
  VSB - VISIBILITY




USA.gov is the U.S. government's official web portal to all federal, state and local government web resources and services.